Regional Weather Roundup
Issued by NWS Upton, NY

Current Version | Previous Version | Graphics & Text | Print | Product List | Glossary Off
Versions: 1 2 3 4 5 6 7 8 9 10 11 12 13 14 15 16 17 18 19 20 21 22 23 24 25 26 27 28 29 30 31 32 33 34 35 36 37 38 39 40 41 42 43 44 45 46 47 48 49 50

000
ASUS41 KOKX 250305
RWROKX
REGIONAL WEATHER ROUNDUP
NATIONAL WEATHER SERVICE NEW YORK NY
1100 PM EDT THU JUL 24 2014

NOTE: "FAIR" INDICATES FEW OR NO CLOUDS BELOW 12,000 FEET WITH NO
SIGNIFICANT WEATHER AND/OR OBSTRUCTIONS TO VISIBILITY.

NYZ071-072-176-178-NJZ106-104-250400-
NEW YORK CITY METRO AREA


CITY           SKY/WX    TMP DP  RH WIND       PRES   REMARKS
CENTRAL PARK   CLOUDY    74  56  53 CALM      29.94R
LAGUARDIA APRT CLOUDY    75  56  51 N10       29.90R
KENNEDY INTL   CLOUDY    75  55  49 N9        29.90R
NEWARK/LIBERTY MOCLDY    74  53  48 N15       29.91R
BRNX BOT. GARD   N/A     72  57  60 N5        29.92R
TETERBORO      MOCLDY    75  53  46 N7        29.90R
$$

NYZ177-179-078>081-250400-
LONG ISLAND NEW YORK

CITY           SKY/WX    TMP DP  RH WIND       PRES   REMARKS
FARMINGDALE    CLOUDY    72  56  57 N5        29.90R
ISLIP          MOCLDY    73  58  59 N7        29.88R
SHIRLEY        MOCLDY    72  59  63 N3        29.90R
WESTHAMPTON    CLEAR     68  66  93 CALM      29.90S
MONTAUK POINT    N/A     68  65  90 CALM      29.90S
$$

NYZ052-065-067-250400-
HUDSON VALLEY

CITY           SKY/WX    TMP DP  RH WIND       PRES   REMARKS
WHITE PLAINS   CLOUDY    66  57  72 NW7       29.91R
NEWBURGH       CLEAR     64  59  82 CALM      29.94
MONTGOMERY     PTCLDY    65  53  65 NW6       29.93R
POUGHKEEPSIE   MOCLDY    64  60  87 CALM      29.92R
ALBANY         MOCLDY    67  53  61 N6        29.94R
$$

NJZ001-105-106-008-010-013-015-019>022-104-250400-
NEW JERSEY

CITY           SKY/WX    TMP DP  RH WIND       PRES   REMARKS
NEWARK/LIBERTY MOCLDY    74  53  48 N15       29.91R
TETERBORO      MOCLDY    75  53  46 N7        29.90R
CALDWELL       MOCLDY    70  52  52 CALM      29.92R
MORRISTOWN     PTCLDY    70  52  52 CALM      29.92S
SOMERVILLE     PTCLDY    68  54  60 NW3       29.91R
LINDEN         FAIR      74  54  49 N8        29.92S
SUSSEX         PTCLDY    64  55  72 CALM      29.94R
ANDOVER          N/A     61  56  83 CALM      29.96R
TRENTON        MOCLDY    68  55  63 N6        29.92R
MILLVILLE      CLOUDY    71  58  63 NW3       29.92R
ATLANTIC CITY  CLOUDY    69  66  90 N3        29.90S
WRIGHTSTOWN    MOCLDY    70  56  61 N9        29.89S
TOMS RIVER     CLOUDY    68  61  77 CALM      29.91S
BELMAR         CLOUDY    72  55  56 NW6       29.90S
$$

PAZ047>061-062-071-250400-
EASTERN PENNSYLVANIA

CITY           SKY/WX    TMP DP  RH WIND       PRES   REMARKS
PHILADELPHIA   CLOUDY    74  53  48 N10       29.92R
ALLENTOWN      PTCLDY    65  52  62 NW3       29.95R
SCRANTON       PTCLDY    61  49  64 NE5       29.99R
$$

CTZ002-004>006-009-010-012-RIZ004-006-007-MAZ004-011-015-250400-
SOUTHERN NEW ENGLAND
 IN CT

CITY           SKY/WX    TMP DP  RH WIND       PRES   REMARKS
BRADLEY INTL   MOCLDY    66  56  70 N3        29.89R
HARTFORD       MOCLDY    70  55  59 N5        29.89R
DANBURY        MOCLDY    63  56  78 SW3       29.93R
WTRBRY/OXFORD  CLOUDY    66  55  68 N3        29.93S
BRIDGEPORT     MOCLDY    73  58  59 N9        29.89R
MERIDEN        MOCLDY    64  59  83 CALM      29.90R
NEW HAVEN      MOCLDY    71  57  61 N5        29.90R
CHESTER        FAIR      64  63  94 CALM      29.92R
GROTON         PTCLDY    65  65 100 CALM      29.89R
WILLIMANTIC    MOCLDY    66  61  84 CALM      29.90R

 IN RI

CITY           SKY/WX    TMP DP  RH WIND       PRES   REMARKS
PROVIDENCE     MOCLDY    69  61  75 SE3       29.90R
BLOCK ISLAND   MOCLDY    66  63  88 E3        29.89S
WESTERLY       CLOUDY    69  65  86 CALM      29.89F

 IN MA

CITY           SKY/WX    TMP DP  RH WIND       PRES   REMARKS
BOSTON         PTCLDY    67  62  84 CALM      29.89S
WORCESTER      CLOUDY    67  53  61 N5        29.93R
WESTFIELD      MOCLDY    62  59  90 NE3       29.90S
PROVINCETOWN   MOCLDY    63  61  94 CALM      29.88F
NANTUCKET      MOCLDY    64  62  93 N6        29.87F
$$

ANZ330-335-338-340-345-350-353-355-250400-
COASTAL MARINE OBSERVATIONS


STATION/POSITION TIME  SKY/WX   TEMP    WIND        PRES    VSBY  WAVE
                                AIR SEA DIR/SP/G                  HT/PER
                 (UTC)          (F)     (DEG/KT/KT) (MB)    (MI)  (FT/S)
NY HARB ENTRANCE NOT AVBL
4S FIRE IS       NOT AVBL
23SW MTP         0200            70 71              1011.2          2/ 7
HUDSON CANYON    0300            73 74  300/  8/  8 1011.5          2/ 9
EXECUTION ROCKS  0300            73 73  330/  6/  8   N/A
WESTERN LI SOUND 0300            73     340/  6/  8   N/A           0
CENTRAL LI SOUND 0300            72 71  120/  8/ 10   N/A           1
EASTERN LI SOUND 0200            67 67   CALM  /  2   N/A
ROBBINS REEF     0300            75     330/  8/ 11   N/A
$$


>>>>>>>>>>>>>>>>>>>>>>>>>>>> KEY <<<<<<<<<<<<<<<<<<<<<<<<<<<
>                                                          <
>     SKY/WX - SKY CONDITION/PRESENT WEATHER               <
>     TMP    - TEMPERATURE IN FAHRENHEIT                   <
>     DP     - DEWPOINT IN FAHRENHEIT                      <
>     RH     - RELATIVE HUMIDITY IN PERCENT                <
>     WIND   - DIRECTION AND SPEED IN MPH                  <
>     PRES   - MEAN SEA LEVEL PRESSURE IN INCHES OF HG     <
>     WCI    - WIND CHILL INDEX                            <
>     VSB    - VISIBILITY IN MILES                         <
>     HX     - HEAT INDEX                                  <
>     TC     - TEMPERATURE IN CELSIUS                      <
>     VRB    - VARIABLE WIND DIRECTION                     <
>                                                          <
>>>>>>>>>>>>>>>>>>>>>>>>>>>> KEY <<<<<<<<<<<<<<<<<<<<<<<<<<<




USA.gov is the U.S. government's official web portal to all federal, state and local government web resources and services.